| time (UTC) | temp F | wind direction | speed MPH | gust MPH | rain 1hr in | rain 24hr in | rain mn in | humidity % | barometer mb |
| 20260904011016 | 82 | 0.0 | 2.0 | 0.00 | 0.14 | 0.14 | 77 | 1012.7 | |
| 20260904010516 | 82 | 0.0 | 2.0 | 0.00 | 0.14 | 0.14 | 76 | 1012.7 | |
| 20260904010016 | 82 | 225 | 1.0 | 4.0 | 0.00 | 0.14 | 0.14 | 75 | 1012.7 |
| 20260904005515 | 82 | 0.0 | 2.0 | 0.00 | 0.14 | 0.14 | 75 | 1012.6 | |
| 20260904005015 | 82 | 0.0 | 0.0 | 0.00 | 0.14 | 0.14 | 74 | 1012.5 | |
| 20260904004515 | 82 | 0.0 | 0.0 | 0.00 | 0.14 | 0.14 | 74 | 1012.3 | |
| 20260904004015 | 83 | 0.0 | 0.0 | 0.00 | 0.14 | 0.14 | 73 | 1012.3 | |
| 20260904003515 | 83 | 0.0 | 0.0 | 0.00 | 0.14 | 0.14 | 73 | 1012.4 | |
| 20260904003015 | 83 | 0.0 | 2.0 | 0.00 | 0.14 | 0.14 | 72 | 1012.6 | |
| 20260904002515 | 83 | 225 | 1.0 | 3.0 | 0.00 | 0.14 | 0.14 | 71 | 1012.7 |
| 20260904002016 | 84 | 0.0 | 2.0 | 0.00 | 0.14 | 0.14 | 71 | 1012.5 | |
| 20260904001535 | 84 | 225 | 1.0 | 4.0 | 0.00 | 0.14 | 0.14 | 70 | 1012.4 |
| 20260904001015 | 84 | 225 | 1.0 | 4.0 | 0.00 | 0.14 | 0.14 | 69 | 1012.5 |
| 20260904000536 | 85 | 225 | 2.0 | 4.0 | 0.00 | 0.14 | 0.14 | 68 | 1012.4 |
| 20260904000016 | 85 | 225 | 1.0 | 5.0 | 0.00 | 0.14 | 0.14 | 67 | 1012.4 |
| 20260903235515 | 86 | 225 | 1.0 | 3.0 | 0.00 | 0.14 | 0.14 | 66 | 1012.2 |
| 20260903235015 | 86 | 225 | 2.0 | 4.0 | 0.00 | 0.14 | 0.14 | 64 | 1011.9 |
| 20260903234516 | 86 | 225 | 2.0 | 4.0 | 0.00 | 0.14 | 0.14 | 64 | 1011.9 |
| 20260903234016 | 86 | 270 | 2.0 | 5.0 | 0.00 | 0.14 | 0.14 | 63 | 1012.1 |
| 20260903233516 | 86 | 248 | 2.0 | 4.0 | 0.00 | 0.14 | 0.14 | 63 | 1012.0 |
| 20260903233015 | 86 | 248 | 1.0 | 4.0 | 0.00 | 0.14 | 0.14 | 63 | 1011.9 |
| 20260903232515 | 86 | 270 | 3.0 | 8.0 | 0.00 | 0.14 | 0.14 | 62 | 1011.8 |
| 20260903232015 | 87 | 270 | 2.0 | 6.0 | 0.00 | 0.14 | 0.14 | 62 | 1011.9 |
| 20260903231517 | 87 | 270 | 2.0 | 7.0 | 0.00 | 0.14 | 0.14 | 62 | 1011.9 |
| 20260903231015 | 87 | 270 | 3.0 | 7.0 | 0.00 | 0.14 | 0.14 | 62 | 1012.0 |
| 20260903230536 | 87 | 270 | 3.0 | 7.0 | 0.00 | 0.14 | 0.14 | 61 | 1012.0 |
| 20260903230015 | 87 | 248 | 2.0 | 5.0 | 0.00 | 0.14 | 0.14 | 61 | 1011.9 |
| 20260903225516 | 87 | 270 | 2.0 | 6.0 | 0.00 | 0.14 | 0.14 | 61 | 1012.0 |
| 20260903225017 | 87 | 248 | 3.0 | 6.0 | 0.00 | 0.14 | 0.14 | 61 | 1012.0 |
| 20260903224515 | 88 | 225 | 3.0 | 7.0 | 0.00 | 0.14 | 0.14 | 60 | 1012.0 |
| 20260903224015 | 88 | 248 | 2.0 | 5.0 | 0.00 | 0.14 | 0.14 | 60 | 1012.0 |
| 20260903223517 | 88 | 293 | 3.0 | 7.0 | 0.00 | 0.14 | 0.14 | 59 | 1012.1 |
| 20260903223037 | 88 | 248 | 2.0 | 5.0 | 0.00 | 0.14 | 0.14 | 59 | 1012.1 |
| 20260903222516 | 88 | 293 | 2.0 | 6.0 | 0.00 | 0.14 | 0.14 | 59 | 1012.2 |
| 20260903222015 | 89 | 270 | 3.0 | 7.0 | 0.00 | 0.14 | 0.14 | 59 | 1012.1 |
| 20260903221536 | 89 | 315 | 2.0 | 4.0 | 0.00 | 0.14 | 0.14 | 59 | 1012.1 |
| 20260903221015 | 88 | 248 | 3.0 | 7.0 | 0.00 | 0.14 | 0.14 | 59 | 1012.0 |
| 20260903220515 | 89 | 270 | 4.0 | 8.0 | 0.00 | 0.14 | 0.14 | 58 | 1012.0 |
| 20260903220015 | 89 | 315 | 3.0 | 6.0 | 0.00 | 0.14 | 0.14 | 57 | 1011.9 |
| 20260903215515 | 89 | 270 | 3.0 | 7.0 | 0.00 | 0.14 | 0.14 | 57 | 1012.0 |
| 20260903215015 | 90 | 248 | 4.0 | 9.0 | 0.00 | 0.14 | 0.14 | 56 | 1011.9 |
| 20260903214517 | 90 | 270 | 3.0 | 8.0 | 0.00 | 0.14 | 0.14 | 56 | 1011.8 |
| 20260903214018 | 90 | 293 | 4.0 | 9.0 | 0.00 | 0.14 | 0.14 | 56 | 1011.8 |
| 20260903213518 | 90 | 270 | 3.0 | 6.0 | 0.00 | 0.14 | 0.14 | 56 | 1011.9 |
| 20260903213038 | 90 | 293 | 4.0 | 8.0 | 0.00 | 0.14 | 0.14 | 56 | 1011.8 |
| 20260903212517 | 89 | 270 | 3.0 | 9.0 | 0.00 | 0.14 | 0.14 | 57 | 1011.9 |
| 20260903212057 | 89 | 270 | 5.0 | 8.0 | 0.00 | 0.14 | 0.14 | 57 | 1012.0 |
| 20260903211537 | 89 | 270 | 4.0 | 8.0 | 0.00 | 0.14 | 0.14 | 57 | 1012.0 |
| 20260903211037 | 90 | 270 | 3.0 | 8.0 | 0.00 | 0.14 | 0.14 | 56 | 1012.0 |
| 20260903210539 | 90 | 270 | 4.0 | 10.0 | 0.00 | 0.14 | 0.14 | 55 | 1012.1 |
| 20260903210017 | 90 | 248 | 4.0 | 10.0 | 0.00 | 0.14 | 0.14 | 55 | 1012.0 |
| 20260903205517 | 90 | 293 | 4.0 | 9.0 | 0.00 | 0.14 | 0.14 | 54 | 1012.0 |
| 20260903205017 | 91 | 270 | 4.0 | 10.0 | 0.00 | 0.14 | 0.14 | 54 | 1012.0 |
| 20260903204517 | 90 | 225 | 4.0 | 9.0 | 0.00 | 0.14 | 0.14 | 55 | 1012.0 |
| 20260903204017 | 90 | 315 | 4.0 | 8.0 | 0.00 | 0.14 | 0.14 | 55 | 1012.0 |
| 20260903203517 | 90 | 270 | 5.0 | 11.0 | 0.00 | 0.14 | 0.14 | 55 | 1012.0 |
| 20260903203017 | 90 | 270 | 6.0 | 13.0 | 0.00 | 0.14 | 0.14 | 55 | 1011.9 |
| 20260903202517 | 90 | 270 | 5.0 | 10.0 | 0.00 | 0.14 | 0.14 | 55 | 1012.0 |
| 20260903202017 | 90 | 270 | 6.0 | 10.0 | 0.00 | 0.14 | 0.14 | 55 | 1011.9 |
| 20260903201517 | 90 | 270 | 6.0 | 11.0 | 0.00 | 0.14 | 0.14 | 55 | 1011.9 |
| 20260903201017 | 90 | 270 | 4.0 | 11.0 | 0.00 | 0.14 | 0.14 | 55 | 1011.9 |
| 20260903200538 | 90 | 270 | 6.0 | 11.0 | 0.00 | 0.14 | 0.14 | 55 | 1012.0 |
| 20260903200018 | 90 | 248 | 3.0 | 10.0 | 0.00 | 0.14 | 0.14 | 56 | 1012.1 |
| 20260903195517 | 90 | 225 | 3.0 | 6.0 | 0.00 | 0.14 | 0.14 | 57 | 1012.2 |
| 20260903195018 | 89 | 270 | 2.0 | 6.0 | 0.00 | 0.14 | 0.14 | 57 | 1012.2 |
| 20260903194537 | 89 | 0 | 3.0 | 10.0 | 0.00 | 0.14 | 0.14 | 58 | 1012.2 |
| 20260903194015 | 89 | 248 | 3.0 | 8.0 | 0.00 | 0.14 | 0.14 | 59 | 1012.2 |
| 20260903193540 | 89 | 270 | 5.0 | 12.0 | 0.00 | 0.14 | 0.14 | 58 | 1012.3 |
| 20260903193037 | 89 | 248 | 4.0 | 9.0 | 0.00 | 0.14 | 0.14 | 59 | 1012.4 |
| 20260903192517 | 88 | 293 | 2.0 | 7.0 | 0.00 | 0.14 | 0.14 | 59 | 1012.5 |
| 20260903192017 | 89 | 293 | 4.0 | 10.0 | 0.00 | 0.14 | 0.14 | 59 | 1012.5 |
| 20260903191517 | 89 | 248 | 4.0 | 11.0 | 0.00 | 0.14 | 0.14 | 59 | 1012.6 |
| 20260903191017 | 88 | 248 | 5.0 | 11.0 | 0.00 | 0.14 | 0.14 | 59 | 1012.6 |
| 20260903190517 | 88 | 270 | 5.0 | 12.0 | 0.00 | 0.14 | 0.14 | 60 | 1012.7 |
| 20260903190037 | 88 | 270 | 5.0 | 13.0 | 0.00 | 0.14 | 0.14 | 60 | 1012.7 |
| 20260903185517 | 88 | 270 | 6.0 | 11.0 | 0.00 | 0.15 | 0.14 | 61 | 1012.9 |
| 20260903185018 | 88 | 270 | 6.0 | 12.0 | 0.00 | 0.15 | 0.14 | 60 | 1012.9 |
| 20260903184518 | 88 | 248 | 7.0 | 15.0 | 0.00 | 0.15 | 0.14 | 60 | 1013.0 |
| 20260903184018 | 87 | 225 | 7.0 | 15.0 | 0.00 | 0.15 | 0.14 | 61 | 1013.1 |
| 20260903183517 | 87 | 270 | 6.0 | 13.0 | 0.00 | 0.15 | 0.14 | 61 | 1013.0 |
| 20260903183037 | 87 | 270 | 5.0 | 12.0 | 0.00 | 0.15 | 0.14 | 61 | 1013.1 |
| 20260903182517 | 87 | 270 | 8.0 | 14.0 | 0.00 | 0.15 | 0.14 | 61 | 1013.1 |
| 20260903182017 | 87 | 315 | 6.0 | 11.0 | 0.00 | 0.15 | 0.14 | 61 | 1013.1 |
| 20260903181517 | 87 | 225 | 5.0 | 10.0 | 0.00 | 0.15 | 0.14 | 62 | 1013.1 |
| 20260903181017 | 87 | 270 | 7.0 | 15.0 | 0.00 | 0.15 | 0.14 | 63 | 1013.2 |
| 20260903180517 | 86 | 270 | 6.0 | 11.0 | 0.00 | 0.15 | 0.14 | 63 | 1013.4 |
| 20260903180017 | 86 | 270 | 5.0 | 11.0 | 0.00 | 0.15 | 0.14 | 64 | 1013.4 |
| 20260903175517 | 86 | 248 | 5.0 | 10.0 | 0.00 | 0.15 | 0.14 | 65 | 1013.6 |
| 20260903175058 | 86 | 270 | 6.0 | 12.0 | 0.00 | 0.15 | 0.14 | 64 | 1013.6 |
| 20260903174537 | 85 | 270 | 7.0 | 12.0 | 0.00 | 0.15 | 0.14 | 65 | 1013.6 |
| 20260903174037 | 85 | 270 | 7.0 | 14.0 | 0.00 | 0.15 | 0.14 | 65 | 1013.7 |
| 20260903173517 | 86 | 270 | 7.0 | 12.0 | 0.00 | 0.15 | 0.14 | 64 | 1013.6 |
| 20260903173017 | 85 | 270 | 5.0 | 11.0 | 0.00 | 0.15 | 0.14 | 65 | 1013.6 |
| 20260903172517 | 85 | 270 | 4.0 | 9.0 | 0.00 | 0.15 | 0.14 | 66 | 1013.8 |
| 20260903172017 | 84 | 270 | 6.0 | 12.0 | 0.00 | 0.15 | 0.14 | 66 | 1014.0 |
| 20260903171517 | 84 | 270 | 7.0 | 13.0 | 0.00 | 0.15 | 0.14 | 67 | 1014.0 |
| 20260903171018 | 84 | 270 | 8.0 | 15.0 | 0.00 | 0.15 | 0.14 | 67 | 1014.1 |
| 20260903170538 | 84 | 248 | 5.0 | 9.0 | 0.00 | 0.15 | 0.14 | 68 | 1014.1 |
| 20260903170017 | 83 | 270 | 6.0 | 12.0 | 0.00 | 0.15 | 0.14 | 68 | 1014.2 |
| 20260903165518 | 83 | 270 | 8.0 | 13.0 | 0.00 | 0.15 | 0.14 | 67 | 1014.3 |
| 20260903165018 | 84 | 293 | 7.0 | 13.0 | 0.00 | 0.15 | 0.14 | 65 | 1014.3 |
| 20260903164517 | 84 | 270 | 6.0 | 14.0 | 0.00 | 0.15 | 0.14 | 67 | 1014.4 |
| 20260903164017 | 84 | 270 | 8.0 | 18.0 | 0.00 | 0.15 | 0.14 | 67 | 1014.5 |
| 20260903163517 | 84 | 225 | 7.0 | 20.0 | 0.00 | 0.15 | 0.14 | 67 | 1014.6 |
| 20260903163037 | 84 | 270 | 7.0 | 13.0 | 0.00 | 0.15 | 0.14 | 68 | 1014.5 |
| 20260903162517 | 83 | 270 | 7.0 | 15.0 | 0.00 | 0.15 | 0.14 | 69 | 1014.5 |
| 20260903162017 | 83 | 270 | 9.0 | 15.0 | 0.00 | 0.15 | 0.14 | 70 | 1014.6 |
| 20260903161537 | 83 | 225 | 7.0 | 14.0 | 0.00 | 0.15 | 0.14 | 71 | 1014.6 |
| 20260903161017 | 82 | 270 | 5.0 | 12.0 | 0.00 | 0.15 | 0.14 | 72 | 1014.6 |
| 20260903160517 | 81 | 293 | 7.0 | 13.0 | 0.00 | 0.15 | 0.14 | 73 | 1014.7 |
| 20260903160017 | 81 | 270 | 7.0 | 12.0 | 0.00 | 0.15 | 0.14 | 73 | 1014.6 |
| 20260903155517 | 81 | 248 | 5.0 | 13.0 | 0.00 | 0.15 | 0.14 | 74 | 1014.8 |
| 20260903155038 | 81 | 293 | 7.0 | 11.0 | 0.00 | 0.15 | 0.14 | 74 | 1015.0 |
| 20260903154517 | 81 | 270 | 7.0 | 12.0 | 0.00 | 0.15 | 0.14 | 75 | 1015.0 |
| 20260903154017 | 81 | 248 | 4.0 | 9.0 | 0.00 | 0.15 | 0.14 | 77 | 1015.1 |
| 20260903153517 | 80 | 293 | 6.0 | 11.0 | 0.00 | 0.15 | 0.14 | 77 | 1015.2 |
| 20260903153017 | 80 | 270 | 5.0 | 10.0 | 0.00 | 0.15 | 0.14 | 77 | 1015.1 |
| 20260903152517 | 79 | 270 | 7.0 | 13.0 | 0.00 | 0.15 | 0.14 | 77 | 1015.1 |
| 20260903152017 | 79 | 270 | 7.0 | 14.0 | 0.00 | 0.15 | 0.14 | 78 | 1015.1 |
| 20260903151517 | 79 | 270 | 6.0 | 13.0 | 0.00 | 0.15 | 0.14 | 78 | 1015.1 |
| 20260903151037 | 79 | 248 | 7.0 | 13.0 | 0.00 | 0.15 | 0.14 | 78 | 1015.2 |
| 20260903150517 | 79 | 270 | 7.0 | 14.0 | 0.00 | 0.15 | 0.14 | 79 | 1014.9 |
| 20260903150017 | 79 | 270 | 6.0 | 11.0 | 0.00 | 0.15 | 0.14 | 79 | 1015.1 |
| 20260903145517 | 79 | 270 | 6.0 | 12.0 | 0.00 | 0.15 | 0.14 | 80 | 1015.3 |
| 20260903145018 | 79 | 248 | 5.0 | 11.0 | 0.00 | 0.15 | 0.14 | 82 | 1015.2 |
| 20260903144537 | 78 | 270 | 5.0 | 10.0 | 0.00 | 0.15 | 0.14 | 83 | 1015.2 |
| 20260903144018 | 78 | 270 | 4.0 | 10.0 | 0.00 | 0.15 | 0.14 | 85 | 1015.0 |
| 20260903143517 | 77 | 270 | 7.0 | 13.0 | 0.00 | 0.15 | 0.14 | 86 | 1014.9 |
| 20260903143017 | 77 | 248 | 6.0 | 12.0 | 0.00 | 0.15 | 0.14 | 88 | 1015.0 |
| 20260903142517 | 76 | 293 | 7.0 | 12.0 | 0.00 | 0.15 | 0.14 | 89 | 1015.0 |
| 20260903142016 | 76 | 248 | 4.0 | 10.0 | 0.00 | 0.15 | 0.14 | 91 | 1015.1 |
| 20260903141537 | 76 | 248 | 3.0 | 7.0 | 0.00 | 0.15 | 0.14 | 92 | 1015.0 |
| 20260903141017 | 75 | 225 | 5.0 | 9.0 | 0.00 | 0.15 | 0.14 | 92 | 1015.0 |
| 20260903140517 | 74 | 248 | 3.0 | 9.0 | 0.00 | 0.15 | 0.14 | 93 | 1015.1 |
| 20260903140016 | 74 | 270 | 2.0 | 7.0 | 0.00 | 0.15 | 0.14 | 93 | 1015.2 |
| 20260903135537 | 74 | 270 | 3.0 | 7.0 | 0.00 | 0.15 | 0.14 | 93 | 1015.3 |
| 20260903135017 | 74 | 225 | 3.0 | 7.0 | 0.00 | 0.15 | 0.14 | 94 | 1015.2 |
| 20260903134517 | 74 | 203 | 4.0 | 9.0 | 0.00 | 0.15 | 0.14 | 94 | 1015.2 |
| 20260903134016 | 74 | 225 | 3.0 | 9.0 | 0.00 | 0.15 | 0.14 | 94 | 1015.4 |
| 20260903133517 | 73 | 225 | 2.0 | 7.0 | 0.00 | 0.15 | 0.14 | 95 | 1015.3 |
| 20260903133017 | 73 | 248 | 2.0 | 9.0 | 0.00 | 0.15 | 0.14 | 94 | 1015.4 |
| 20260903132537 | 73 | 225 | 3.0 | 8.0 | 0.00 | 0.15 | 0.14 | 94 | 1015.5 |
| 20260903132017 | 73 | 203 | 2.0 | 8.0 | 0.00 | 0.15 | 0.14 | 95 | 1015.6 |
| 20260903131516 | 72 | 225 | 2.0 | 6.0 | 0.00 | 0.15 | 0.14 | 95 | 1015.1 |
| 20260903131037 | 72 | 225 | 2.0 | 5.0 | 0.00 | 0.15 | 0.14 | 95 | 1015.3 |
| 20260903130517 | 72 | 225 | 2.0 | 6.0 | 0.00 | 0.15 | 0.14 | 95 | 1015.4 |
| 20260903130017 | 72 | 225 | 1.0 | 6.0 | 0.00 | 0.15 | 0.14 | 95 | 1015.5 |
| 20260903125539 | 72 | 248 | 3.0 | 6.0 | 0.00 | 0.15 | 0.14 | 95 | 1015.7 |
| 20260903125017 | 72 | 248 | 2.0 | 6.0 | 0.00 | 0.15 | 0.14 | 95 | 1015.7 |
| 20260903124516 | 72 | 270 | 1.0 | 4.0 | 0.00 | 0.15 | 0.14 | 95 | 1015.6 |
| 20260903124017 | 72 | 270 | 1.0 | 9.0 | 0.00 | 0.15 | 0.14 | 95 | 1015.5 |
| 20260903123538 | 72 | 225 | 3.0 | 7.0 | 0.00 | 0.15 | 0.14 | 95 | 1015.6 |
| 20260903123036 | 72 | 270 | 1.0 | 5.0 | 0.00 | 0.15 | 0.14 | 95 | 1015.4 |
| 20260903122516 | 71 | 248 | 2.0 | 6.0 | 0.00 | 0.15 | 0.14 | 95 | 1015.3 |
| 20260903122018 | 71 | 225 | 3.0 | 8.0 | 0.00 | 0.15 | 0.14 | 95 | 1015.1 |
| 20260903121538 | 71 | 225 | 4.0 | 9.0 | 0.00 | 0.15 | 0.14 | 95 | 1015.3 |
| 20260903121016 | 71 | 248 | 2.0 | 6.0 | 0.00 | 0.15 | 0.14 | 95 | 1015.7 |
| 20260903120518 | 71 | 225 | 3.0 | 7.0 | 0.00 | 0.15 | 0.14 | 95 | 1015.6 |
| 20260903120018 | 71 | 270 | 4.0 | 9.0 | 0.00 | 0.15 | 0.14 | 95 | 1015.9 |
| 20260903115516 | 71 | 270 | 2.0 | 7.0 | 0.00 | 0.15 | 0.14 | 95 | 1015.7 |
| 20260903115036 | 71 | 270 | 3.0 | 8.0 | 0.00 | 0.15 | 0.14 | 95 | 1015.9 |
| 20260903114516 | 71 | 270 | 4.0 | 9.0 | 0.00 | 0.15 | 0.14 | 95 | 1015.7 |
| 20260903114038 | 71 | 270 | 4.0 | 9.0 | 0.00 | 0.15 | 0.14 | 95 | 1015.4 |
| 20260903113516 | 71 | 270 | 5.0 | 9.0 | 0.00 | 0.15 | 0.14 | 95 | 1015.8 |
| 20260903113018 | 71 | 270 | 5.0 | 9.0 | 0.00 | 0.15 | 0.14 | 95 | 1015.6 |
| 20260903112537 | 71 | 270 | 4.0 | 7.0 | 0.00 | 0.15 | 0.14 | 95 | 1015.5 |
| 20260903112016 | 71 | 270 | 2.0 | 7.0 | 0.00 | 0.15 | 0.14 | 95 | 1015.4 |
| 20260903111516 | 71 | 270 | 4.0 | 8.0 | 0.00 | 0.15 | 0.14 | 95 | 1015.5 |
| 20260903111016 | 71 | 270 | 5.0 | 10.0 | 0.00 | 0.15 | 0.14 | 95 | 1015.5 |
| 20260903110517 | 71 | 270 | 3.0 | 8.0 | 0.00 | 0.15 | 0.14 | 95 | 1015.6 |
| 20260903110016 | 71 | 270 | 2.0 | 7.0 | 0.00 | 0.15 | 0.14 | 95 | 1015.7 |
| 20260903105516 | 71 | 270 | 1.0 | 7.0 | 0.00 | 0.15 | 0.14 | 95 | 1015.7 |
| 20260903105016 | 71 | 270 | 1.0 | 6.0 | 0.00 | 0.15 | 0.14 | 95 | 1015.5 |
| 20260903104517 | 71 | 0.0 | 0.0 | 0.00 | 0.15 | 0.14 | 95 | 1015.5 | |
| 20260903104016 | 71 | 0.0 | 0.0 | 0.00 | 0.15 | 0.14 | 95 | 1015.6 | |
| 20260903103516 | 71 | 248 | 1.0 | 4.0 | 0.00 | 0.15 | 0.14 | 95 | 1015.5 |
| 20260903103016 | 71 | 248 | 3.0 | 9.0 | 0.00 | 0.15 | 0.14 | 95 | 1015.5 |
| 20260903102516 | 71 | 225 | 2.0 | 8.0 | 0.00 | 0.15 | 0.14 | 95 | 1015.5 |
| 20260903102016 | 71 | 225 | 4.0 | 9.0 | 0.00 | 0.15 | 0.14 | 95 | 1015.3 |
| 20260903101516 | 71 | 225 | 1.0 | 8.0 | 0.00 | 0.15 | 0.14 | 95 | 1015.5 |
| 20260903101016 | 71 | 248 | 1.0 | 5.0 | 0.00 | 0.15 | 0.14 | 95 | 1015.6 |
| 20260903100516 | 71 | 225 | 3.0 | 8.0 | 0.00 | 0.15 | 0.14 | 95 | 1015.7 |
| 20260903100016 | 71 | 248 | 1.0 | 6.0 | 0.00 | 0.15 | 0.14 | 95 | 1015.6 |
| 20260903095517 | 71 | 225 | 2.0 | 7.0 | 0.00 | 0.15 | 0.14 | 96 | 1015.7 |
| 20260903095018 | 71 | 0.0 | 4.0 | 0.00 | 0.15 | 0.14 | 96 | 1015.7 | |
| 20260903094517 | 71 | 270 | 1.0 | 4.0 | 0.00 | 0.15 | 0.14 | 95 | 1015.6 |
| 20260903094016 | 71 | 0.0 | 2.0 | 0.00 | 0.15 | 0.14 | 95 | 1015.1 | |
| 20260903093537 | 71 | 225 | 2.0 | 6.0 | 0.01 | 0.15 | 0.14 | 95 | 1015.2 |
| 20260903093016 | 71 | 248 | 3.0 | 7.0 | 0.01 | 0.15 | 0.14 | 95 | 1015.2 |
| 20260903092516 | 71 | 248 | 4.0 | 8.0 | 0.01 | 0.15 | 0.14 | 95 | 1015.1 |
| 20260903092016 | 71 | 248 | 5.0 | 12.0 | 0.01 | 0.15 | 0.14 | 95 | 1015.0 |
| 20260903091536 | 71 | 225 | 3.0 | 8.0 | 0.01 | 0.15 | 0.14 | 95 | 1015.0 |
| 20260903091017 | 71 | 203 | 5.0 | 11.0 | 0.01 | 0.15 | 0.14 | 95 | 1014.7 |
| 20260903090536 | 71 | 225 | 4.0 | 9.0 | 0.01 | 0.15 | 0.14 | 95 | 1014.7 |
| 20260903090016 | 71 | 225 | 5.0 | 10.0 | 0.01 | 0.15 | 0.14 | 95 | 1015.0 |
| 20260903085536 | 71 | 225 | 5.0 | 10.0 | 0.01 | 0.15 | 0.14 | 95 | 1015.0 |
| 20260903085017 | 71 | 225 | 4.0 | 11.0 | 0.01 | 0.15 | 0.14 | 95 | 1014.7 |
| 20260903084536 | 71 | 225 | 1.0 | 8.0 | 0.01 | 0.15 | 0.14 | 95 | 1014.5 |
| 20260903084016 | 71 | 225 | 5.0 | 11.0 | 0.01 | 0.15 | 0.14 | 95 | 1015.4 |
| 20260903083516 | 71 | 225 | 4.0 | 11.0 | 0.00 | 0.14 | 0.13 | 95 | 1015.9 |
| 20260903083017 | 71 | 270 | 2.0 | 8.0 | 0.01 | 0.14 | 0.13 | 95 | 1016.2 |
| 20260903082536 | 71 | 248 | 3.0 | 8.0 | 0.01 | 0.14 | 0.13 | 95 | 1016.4 |
| 20260903082037 | 71 | 270 | 1.0 | 6.0 | 0.02 | 0.14 | 0.13 | 95 | 1016.5 |
| 20260903081618 | 71 | 248 | 2.0 | 7.0 | 0.02 | 0.14 | 0.13 | 95 | 1016.5 |
| 20260903081016 | 71 | 248 | 2.0 | 6.0 | 0.03 | 0.14 | 0.13 | 95 | 1016.2 |
| 20260903080516 | 71 | 248 | 3.0 | 6.0 | 0.03 | 0.14 | 0.13 | 95 | 1016.2 |
| 20260903080016 | 71 | 225 | 2.0 | 7.0 | 0.04 | 0.14 | 0.13 | 95 | 1015.9 |
| 20260903075517 | 71 | 0.0 | 1.0 | 0.04 | 0.14 | 0.13 | 95 | 1015.7 | |
| 20260903075037 | 71 | 0.0 | 0.0 | 0.04 | 0.14 | 0.13 | 95 | 1015.8 | |
| 20260903074537 | 71 | 0.0 | 2.0 | 0.05 | 0.14 | 0.13 | 95 | 1015.6 | |
| 20260903074016 | 71 | 0.0 | 6.0 | 0.05 | 0.14 | 0.13 | 94 | 1015.5 | |
| 20260903073517 | 71 | 225 | 2.0 | 7.0 | 0.05 | 0.14 | 0.13 | 94 | 1015.7 |
| 20260903073016 | 71 | 225 | 1.0 | 4.0 | 0.04 | 0.13 | 0.12 | 94 | 1015.8 |
| 20260903072516 | 71 | 0.0 | 4.0 | 0.04 | 0.13 | 0.12 | 94 | 1016.0 | |
| 20260903072016 | 71 | 225 | 1.0 | 3.0 | 0.04 | 0.12 | 0.11 | 94 | 1016.1 |
| 20260903071516 | 71 | 0.0 | 2.0 | 0.04 | 0.12 | 0.11 | 94 | 1016.3 | |
| 20260903071017 | 71 | 0.0 | 1.0 | 0.03 | 0.11 | 0.10 | 94 | 1016.5 | |
| 20260903070516 | 71 | 0.0 | 3.0 | 0.03 | 0.11 | 0.10 | 94 | 1016.7 | |
| 20260903070017 | 71 | 225 | 1.0 | 4.0 | 0.02 | 0.10 | 0.09 | 94 | 1016.9 |
| 20260903065516 | 71 | 248 | 2.0 | 6.0 | 0.02 | 0.10 | 0.09 | 94 | 1017.1 |
| 20260903065036 | 71 | 225 | 3.0 | 6.0 | 0.02 | 0.10 | 0.09 | 94 | 1017.1 |
| 20260903064517 | 71 | 0 | 1.0 | 6.0 | 0.02 | 0.09 | 0.08 | 94 | 1017.0 |
| 20260903064017 | 71 | 0 | 1.0 | 2.0 | 0.02 | 0.09 | 0.08 | 94 | 1016.8 |
| 20260903063516 | 71 | 0.0 | 2.0 | 0.03 | 0.09 | 0.08 | 94 | 1016.7 | |
| 20260903063016 | 71 | 0.0 | 2.0 | 0.04 | 0.09 | 0.08 | 94 | 1016.7 | |
| 20260903062516 | 71 | 0.0 | 2.0 | 0.04 | 0.09 | 0.08 | 93 | 1016.7 | |
| 20260903062016 | 71 | 0.0 | 1.0 | 0.03 | 0.08 | 0.07 | 93 | 1016.5 | |
| 20260903061517 | 71 | 0.0 | 1.0 | 0.03 | 0.08 | 0.07 | 93 | 1016.5 | |
| 20260903061017 | 71 | 0.0 | 0.0 | 0.03 | 0.08 | 0.07 | 93 | 1016.4 | |
| 20260903060537 | 71 | 0.0 | 1.0 | 0.04 | 0.08 | 0.07 | 93 | 1016.5 | |
| 20260903060016 | 71 | 0.0 | 1.0 | 0.06 | 0.08 | 0.07 | 93 | 1016.7 | |
| 20260903055516 | 71 | 0.0 | 2.0 | 0.07 | 0.08 | 0.07 | 93 | 1016.9 | |
| 20260903055037 | 71 | 0.0 | 2.0 | 0.07 | 0.08 | 0.07 | 93 | 1017.1 | |
| 20260903054536 | 71 | 0.0 | 0.0 | 0.06 | 0.07 | 0.06 | 93 | 1017.3 | |
| 20260903054037 | 71 | 0.0 | 1.0 | 0.06 | 0.07 | 0.06 | 93 | 1017.5 | |
| 20260903053516 | 71 | 0.0 | 1.0 | 0.05 | 0.06 | 0.05 | 93 | 1017.6 | |
| 20260903053017 | 71 | 0.0 | 1.0 | 0.04 | 0.05 | 0.04 | 92 | 1017.6 | |
| 20260903052516 | 71 | 0.0 | 1.0 | 0.04 | 0.05 | 0.04 | 93 | 1017.8 | |
| 20260903052036 | 72 | 0.0 | 1.0 | 0.04 | 0.05 | 0.04 | 93 | 1018.0 | |
| 20260903051516 | 72 | 0.0 | 3.0 | 0.04 | 0.05 | 0.04 | 93 | 1018.2 | |
| 20260903051016 | 72 | 293 | 2.0 | 4.0 | 0.04 | 0.05 | 0.04 | 92 | 1018.6 |
| 20260903050516 | 72 | 315 | 2.0 | 8.0 | 0.03 | 0.04 | 0.04 | 92 | 1018.9 |
| 20260903050017 | 72 | 315 | 4.0 | 8.0 | 0.01 | 0.02 | 0.01 | 92 | 1019.0 |
| 20260903045516 | 72 | 315 | 3.0 | 5.0 | 0.00 | 0.01 | 0.00 | 92 | 1018.8 |
| 20260903045016 | 72 | 338 | 1.0 | 3.0 | 0.00 | 0.01 | 0.00 | 92 | 1018.4 |
| 20260903044516 | 72 | 0.0 | 0.0 | 0.00 | 0.01 | 0.00 | 92 | 1018.0 | |
| 20260903044037 | 72 | 0.0 | 0.0 | 0.00 | 0.01 | 0.00 | 92 | 1018.1 | |
| 20260903043516 | 72 | 0.0 | 0.0 | 0.00 | 0.01 | 0.00 | 92 | 1018.3 | |
| 20260903043016 | 72 | 0.0 | 1.0 | 0.00 | 0.01 | 0.00 | 92 | 1018.6 | |
| 20260903042515 | 72 | 0.0 | 0.0 | 0.00 | 0.01 | 0.00 | 92 | 1018.6 | |
| 20260903042016 | 72 | 0.0 | 0.0 | 0.00 | 0.01 | 0.00 | 91 | 1018.7 | |
| 20260903041516 | 72 | 0.0 | 1.0 | 0.00 | 0.01 | 0.00 | 91 | 1018.7 | |
| 20260903041036 | 72 | 0.0 | 3.0 | 0.00 | 0.01 | 0.00 | 91 | 1018.6 | |
| 20260903040516 | 72 | 0.0 | 1.0 | 0.00 | 0.01 | 0.00 | 91 | 1018.3 | |
| 20260903040016 | 72 | 135 | 1.0 | 3.0 | 0.00 | 0.01 | 0.01 | 91 | 1018.2 |
| 20260903035517 | 72 | 135 | 1.0 | 2.0 | 0.00 | 0.01 | 0.01 | 91 | 1018.4 |
| 20260903035017 | 72 | 135 | 1.0 | 2.0 | 0.00 | 0.01 | 0.01 | 91 | 1018.5 |
| 20260903034516 | 72 | 135 | 1.0 | 4.0 | 0.00 | 0.01 | 0.01 | 91 | 1018.5 |
| 20260903034017 | 72 | 113 | 2.0 | 4.0 | 0.00 | 0.01 | 0.01 | 91 | 1018.5 |
| 20260903033516 | 72 | 135 | 2.0 | 4.0 | 0.00 | 0.01 | 0.01 | 91 | 1018.4 |
| 20260903033016 | 72 | 158 | 2.0 | 4.0 | 0.00 | 0.01 | 0.01 | 91 | 1018.3 |
| 20260903032516 | 72 | 135 | 2.0 | 5.0 | 0.00 | 0.01 | 0.01 | 91 | 1018.2 |
| 20260903032017 | 72 | 113 | 2.0 | 4.0 | 0.00 | 0.01 | 0.01 | 91 | 1018.2 |
| 20260903031536 | 72 | 113 | 2.0 | 6.0 | 0.00 | 0.01 | 0.01 | 91 | 1018.1 |
| 20260903031016 | 72 | 113 | 1.0 | 6.0 | 0.00 | 0.01 | 0.01 | 91 | 1018.3 |
| 20260903030516 | 72 | 113 | 3.0 | 6.0 | 0.00 | 0.01 | 0.01 | 91 | 1018.1 |
| 20260903030016 | 72 | 113 | 3.0 | 7.0 | 0.00 | 0.01 | 0.01 | 91 | 1018.1 |
| 20260903025516 | 72 | 113 | 2.0 | 6.0 | 0.00 | 0.01 | 0.01 | 91 | 1018.2 |
| 20260903025016 | 71 | 135 | 3.0 | 7.0 | 0.00 | 0.01 | 0.01 | 91 | 1018.1 |
| 20260903024516 | 71 | 113 | 3.0 | 6.0 | 0.00 | 0.01 | 0.01 | 90 | 1018.4 |
| 20260903024038 | 71 | 113 | 2.0 | 6.0 | 0.00 | 0.01 | 0.01 | 90 | 1018.5 |
| 20260903023516 | 71 | 135 | 1.0 | 3.0 | 0.00 | 0.01 | 0.01 | 90 | 1018.7 |
| 20260903023016 | 71 | 113 | 2.0 | 6.0 | 0.00 | 0.01 | 0.01 | 90 | 1018.8 |
| 20260903022516 | 71 | 113 | 2.0 | 6.0 | 0.00 | 0.01 | 0.01 | 90 | 1019.0 |
| 20260903022016 | 71 | 113 | 2.0 | 6.0 | 0.00 | 0.01 | 0.01 | 90 | 1018.8 |
| 20260903021516 | 71 | 113 | 1.0 | 5.0 | 0.00 | 0.01 | 0.01 | 90 | 1018.4 |
| 20260903021017 | 71 | 113 | 4.0 | 7.0 | 0.00 | 0.01 | 0.01 | 90 | 1018.4 |
| 20260903020517 | 71 | 113 | 2.0 | 7.0 | 0.00 | 0.01 | 0.01 | 89 | 1018.3 |
| 20260903020016 | 71 | 113 | 4.0 | 10.0 | 0.00 | 0.01 | 0.01 | 89 | 1018.2 |
| 20260903015517 | 71 | 135 | 4.0 | 9.0 | 0.00 | 0.01 | 0.01 | 89 | 1018.4 |
| 20260903015016 | 71 | 113 | 3.0 | 7.0 | 0.00 | 0.01 | 0.01 | 89 | 1018.5 |
| 20260903014536 | 71 | 113 | 3.0 | 8.0 | 0.00 | 0.01 | 0.01 | 89 | 1018.6 |
| 20260903014017 | 71 | 113 | 2.0 | 6.0 | 0.00 | 0.01 | 0.01 | 89 | 1019.0 |
| 20260903013537 | 71 | 113 | 4.0 | 9.0 | 0.00 | 0.01 | 0.01 | 89 | 1018.9 |
| 20260903013016 | 71 | 113 | 5.0 | 12.0 | 0.00 | 0.01 | 0.01 | 88 | 1018.7 |
| 20260903012537 | 71 | 113 | 4.0 | 8.0 | 0.00 | 0.01 | 0.01 | 88 | 1018.9 |
| 20260903012016 | 71 | 113 | 3.0 | 7.0 | 0.00 | 0.01 | 0.01 | 88 | 1019.0 |
| 20260903011516 | 71 | 113 | 4.0 | 9.0 | 0.00 | 0.01 | 0.01 | 88 | 1019.0 |